Dewpoint
51 51 51 51 51 50 50 51 51 51 51 50 50 51 51 52 52 52 52 52 52 52 52 52 52 52 52 52 52 53 53 50 49 47 46 45 47 50 56 56 56 58 56 41 37 38 36 36 36 36 37 33 34 29 31 32 28 23 23 21 18 16 14 17 14 14 14 11 10 10 11 10 9 10 16 59 58 59 60 61 62 64 64 65 64 63 64 66
50 50 50 50 50 51 50 51 51 51 51 51 51 51 51 51 52 52 52 52 51 52 52 52 52 52 52 52 52 53 52 50 47 47 45 48 53 53 57 58 58 59 55 42 33 34 34 33 35 36 33 30 33 27 31 29 30 25 21 20 16 16 16 19 18 16 11 10 10 11 11 11 10 10 21 54 55 57 58 60 63 63 64 64 64 64 65 65
50 50 50 50 50 50 50 50 50 51 51 51 51 51 51 51 51 51 52 51 51 51 51 52 51 52 52 52 52 53 51 49 45 39 42 56 54 55 57 58 59 59 46 40 37 32 31 31 33 33 31 30 33 28 30 28 29 28 20 17 17 16 15 13 14 12 12 11 11 10 11 11 11 11 33 55 55 57 57 59 61 62 62 63 63 64 64 65
50 49 50 50 50 50 50 50 50 50 51 51 51 51 51 51 51 51 51 51 51 51 51 51 51 51 52 51 52 52 49 45 25 33 42 55 58 57 59 61 60 55 41 40 36 31 32 34 35 33 32 30 30 29 27 27 26 22 25 21 20 17 16 15 15 14 13 13 11 11 11 11 11 13 52 56 54 54 55 59 61 61 63 63 63 63 64 64
49 49 49 50 50 50 50 50 50 50 50 50 50 51 51 51 51 51 51 51 51 51 51 51 51 51 51 51 52 50 46 1 35 39 43 63 62 57 58 62 58 42 38 37 30 30 33 34 34 31 27 26 29 29 28 28 24 21 24 24 20 19 19 16 13 13 12 15 12 12 11 11 11 17 54 54 50 48 51 56 60 63 64 63 63 63 64 63
49 49 50 49 49 50 50 50 50 50 50 50 50 51 51 51 51 52 52 51 51 51 51 50 51 51 51 51 51 49 23 -7 18 31 59 64 64 60 60 62 56 38 35 31 29 28 29 31 31 29 27 26 28 26 27 28 26 23 25 24 22 20 19 17 18 18 17 14 12 12 13 12 10 9 23 55 51 47 55 60 62 64 64 64 64 63 63 63
49 50 49 49 49 50 50 50 50 50 50 50 50 50 50 50 50 51 52 51 51 51 50 50 50 51 51 51 47 40 23 15 34 36 60 65 63 59 58 61 59 37 30 27 27 27 27 27 28 28 27 26 26 27 27 29 25 26 23 26 25 20 18 17 18 18 16 13 13 14 12 9 8 7 14 49 54 59 62 63 64 64 64 64 63 63 63 63
49 49 49 49 49 50 50 50 50 50 50 50 50 50 50 50 50 50 51 50 50 50 50 50 50 50 51 48 42 35 27 18 22 31 65 63 60 58 58 54 48 37 30 27 26 26 27 26 25 27 26 22 24 26 27 26 25 24 24 23 22 22 21 20 18 16 14 13 12 11 9 7 9 9 30 29 43 60 62 64 64 64 64 64 63 63 63 63
49 49 49 50 50 50 51 50 50 50 50 50 50 50 50 50 50 50 50 50 50 50 50 50 50 50 51 49 36 12 9 14 30 54 59 58 57 54 51 48 42 36 32 26 24 24 27 26 26 24 17 25 26 26 27 25 23 24 25 25 24 24 23 22 19 17 15 12 11 9 6 6 7 11 11 14 56 62 63 63 64 64 64 64 63 63 63 63
48 49 49 49 49 50 50 50 50 50 50 50 50 50 50 50 50 50 50 50 50 49 50 50 49 49 48 46 31 19 19 12 54 56 58 55 52 47 40 43 39 33 32 27 23 26 26 26 26 28 26 25 26 25 27 25 22 24 24 23 21 19 16 13 11 10 9 10 8 6 5 5 9 7 3 32 61 63 63 63 64 63 63 63 63 64 64 63
48 49 49 49 49 50 50 50 50 50 50 50 50 50 50 50 50 50 50 50 50 49 50 50 50 48 47 46 28 18 21 51 50 52 54 51 47 43 40 41 37 34 31 28 23 25 26 26 27 27 27 24 22 20 23 23 25 18 17 12 11 11 12 10 9 7 7 6 6 5 4 7 8 7 4 16 62 63 62 63 63 63 63 63 63 64 64 64
48 48 48 49 49 49 49 50 50 50 50 50 50 50 49 49 50 50 50 50 49 50 50 50 49 48 48 45 34 20 24 49 49 46 49 48 46 45 44 40 37 35 30 27 26 24 24 25 27 26 21 25 20 21 20 22 16 16 15 11 11 11 10 11 8 9 7 6 8 7 6 4 9 6 7 34 62 62 62 62 62 63 63 63 64 65 64 61
49 49 49 49 48 49 49 50 50 50 50 50 49 49 49 49 49 49 49 49 49 49 50 49 48 48 45 26 27 35 32 33 38 36 35 38 38 43 41 37 37 35 32 29 27 26 23 26 26 25 26 25 24 21 18 19 17 15 14 11 10 10 9 10 12 9 7 6 10 7 4 8 8 8 13 57 62 62 62 61 62 62 62 63 64 63 63 62
48 49 49 49 48 48 49 49 50 50 50 50 49 49 49 49 49 50 50 49 49 49 50 50 50 46 44 28 28 35 35 36 38 37 35 38 36 35 40 34 36 33 30 28 25 26 23 25 27 27 25 23 24 23 21 18 14 13 13 11 13 9 11 11 11 10 9 9 9 7 7 8 7 8 15 55 62 61 60 61 61 62 62 63 63 62 62 61
48 49 48 49 48 48 48 49 50 50 50 49 49 49 49 49 49 50 49 49 49 50 49 51 50 47 40 35 39 41 51 42 40 37 38 35 34 35 36 34 31 31 29 26 27 27 25 25 25 23 22 26 22 20 17 12 13 16 10 11 16 10 11 11 15 20 9 9 10 7 15 8 7 8 38 57 61 60 60 61 61 61 62 63 63 62 61 61
48 48 48 48 48 49 49 49 49 49 49 49 49 49 49 49 50 50 49 49 50 50 49 47 47 46 38 26 28 44 48 39 38 45 43 37 36 33 35 33 28 28 26 26 23 24 24 25 18 21 22 21 20 17 16 15 17 17 12 17 14 15 13 9 11 10 11 9 7 8 5 6 5 8 25 46 60 60 60 60 61 61 62 62 63 61 61 60
48 48 48 48 48 48 49 49 49 49 49 49 49 48 49 49 51 49 51 51 51 49 47 45 47 48 22 23 35 33 30 35 40 47 44 40 37 34 29 29 27 24 23 23 26 20 21 22 25 24 25 19 15 15 14 16 15 18 19 13 18 11 13 10 11 13 9 8 8 10 6 9 7 8 13 27 59 58 59 60 61 61 62 63 62 61 60 60
48 48 48 48 48 48 48 49 49 49 49 48 48 48 47 50 51 51 51 50 49 49 48 49 47 35 22 34 24 27 35 38 35 43 44 43 38 35 33 32 28 26 24 26 25 20 23 21 22 24 25 23 20 17 16 15 18 12 12 13 16 17 16 11 10 9 10 10 12 12 11 9 8 8 11 22 54 57 58 60 61 61 62 61 61 60 60 60
48 48 48 48 48 48 48 49 49 49 48 49 48 48 50 50 47 47 47 48 43 36 30 37 32 10 10 23 31 31 30 33 33 35 33 39 38 35 35 32 27 28 26 26 26 22 23 26 26 21 21 19 18 16 15 16 17 11 13 13 16 13 11 10 12 13 11 13 11 11 11 11 11 12 13 13 44 56 56 58 60 61 61 60 60 60 60 60
48 48 48 48 48 48 48 48 48 48 48 48 46 46 42 32 27 25 45 46 44 35 30 35 37 32 34 33 31 29 31 33 28 29 37 43 36 34 34 34 29 26 26 28 25 27 24 22 20 20 21 25 27 21 18 14 13 13 14 13 12 11 11 12 12 12 15 12 13 12 15 15 14 14 15 17 29 52 51 54 57 60 60 59 59 60 60 60
47 47 48 48 48 48 48 48 48 48 48 47 46 36 30 28 29 28 27 31 40 42 39 38 40 36 32 31 32 31 28 30 29 30 34 37 36 33 33 31 28 30 27 27 25 32 25 23 22 23 24 26 27 26 25 23 22 16 16 15 13 12 12 13 12 13 13 18 18 20 19 18 18 19 20 20 32 48 50 52 56 59 59 59 60 59 59 60
48 48 47 48 48 48 48 48 48 48 48 45 42 35 34 28 32 30 31 28 30 34 39 37 37 38 38 35 33 32 32 28 21 21 27 35 34 29 28 30 26 28 27 25 25 23 21 20 23 25 26 30 30 30 27 23 23 21 18 17 15 15 13 13 14 17 18 19 16 20 16 16 17 19 21 22 27 37 49 51 55 59 58 58 59 60 59 60
47 47 47 48 48 48 48 48 48 48 43 41 39 39 37 37 37 36 36 33 32 33 33 35 37 36 35 36 35 33 30 28 19 21 26 30 31 30 25 27 26 25 24 26 25 23 23 22 23 22 27 25 24 26 26 25 25 21 19 17 15 15 14 13 20 23 20 20 18 17 17 19 22 23 23 24 22 23 39 49 53 58 58 58 59 59 59 59
47 47 48 48 48 48 48 48 48 44 40 41 41 39 40 38 39 38 35 31 28 33 32 33 34 34 34 31 32 32 27 25 25 20 31 27 29 26 25 25 24 22 22 22 24 24 23 20 21 23 25 22 24 25 23 20 19 25 23 18 16 15 14 13 17 21 25 23 27 20 21 19 21 18 18 21 25 24 23 48 53 58 58 59 59 60 59 59
47 47 47 48 48 47 48 48 41 42 43 41 42 43 43 42 41 38 34 31 27 27 32 32 34 32 31 35 34 30 30 30 26 21 30 26 25 23 22 24 22 21 21 22 23 22 22 24 23 20 22 21 21 21 23 22 18 22 25 20 17 17 16 15 21 18 19 15 25 19 14 18 19 19 18 20 27 19 25 49 54 57 58 58 58 59 59 59
47 47 47 47 47 47 48 40 38 44 43 40 40 40 43 40 41 42 34 27 23 26 30 28 31 24 32 32 33 33 29 24 28 26 29 27 29 27 25 23 23 20 22 21 20 24 22 26 22 20 22 22 19 19 22 22 18 16 17 22 18 17 17 17 18 17 13 12 21 24 12 15 17 15 17 27 37 33 37 48 53 56 57 57 58 58 58 58
47 47 47 47 47 47 39 28 44 43 35 33 38 42 40 41 43 40 30 19 13 24 26 26 23 23 29 27 32 24 6 7 29 29 28 34 26 28 24 23 22 21 24 25 24 22 19 19 21 22 23 20 20 17 21 19 18 15 21 20 19 17 17 19 19 16 16 25 27 22 16 13 11 14 23 29 41 41 39 45 53 55 56 56 57 57 57 58
47 47 47 47 47 47 44 45 43 40 37 38 42 41 41 42 42 36 22 2 -3 19 21 23 22 28 23 29 31 17 10 20 17 22 26 30 26 25 25 22 21 20 18 24 20 26 25 21 22 20 21 17 16 17 23 19 15 16 24 18 17 17 17 17 17 20 21 17 15 18 20 11 14 18 28 38 38 40 42 44 51 55 55 56 56 57 57 57
47 47 47 47 47 48 46 45 44 39 40 43 43 42 43 42 35 24 17 0 11 19 24 25 29 17 22 30 29 25 20 22 19 23 27 27 27 24 24 23 22 21 17 23 22 23 18 19 18 18 17 16 16 15 20 18 17 18 24 22 20 19 19 19 20 18 19 13 13 17 21 11 11 17 31 35 36 36 39 44 49 54 55 55 56 56 57 57
47 47 47 47 47 45 42 46 44 44 45 44 43 44 42 35 25 16 5 1 20 16 17 19 13 10 19 24 25 25 22 19 23 25 26 24 25 25 24 23 21 20 19 18 17 22 22 35 26 15 15 16 15 15 18 17 16 20 17 16 17 22 20 26 22 19 15 8 13 17 22 13 9 17 30 34 34 38 41 43 49 53 55 56 56 56 57 57
47 47 47 47 45 45 42 37 39 43 45 44 45 39 29 22 22 10 2 9 19 20 15 9 7 12 9 6 6 13 21 20 18 24 23 25 24 24 24 21 23 23 23 22 21 20 21 19 17 17 25 16 14 14 16 17 16 16 17 14 15 16 18 17 19 18 8 8 13 15 17 15 10 17 33 38 43 44 44 44 45 52 54 55 56 56 57 57
47 47 47 47 46 46 39 29 32 44 45 45 41 28 16 0 12 4 5 17 11 13 13 8 10 11 10 8 8 17 16 19 23 21 20 22 24 22 23 22 22 19 19 19 19 25 22 19 18 16 37 15 15 13 13 15 15 13 19 18 12 13 12 7 12 6 6 11 15 20 18 14 12 18 42 45 48 49 49 47 47 51 54 55 56 57 57 57
47 47 48 47 48 46 46 44 44 45 45 44 33 24 13 8 -4 14 11 14 10 17 13 19 11 13 11 7 13 19 21 18 22 24 24 24 23 22 23 23 23 24 18 24 20 19 20 22 18 17 16 23 14 13 14 11 15 14 13 16 13 9 4 0 7 9 12 13 17 16 20 13 22 29 38 46 50 51 50 49 50 52 54 55 56 57 57 57
47 48 46 47 47 47 47 46 46 45 44 42 28 15 2 -11 -8 35 20 23 19 21 14 13 14 9 6 10 16 26 23 29 23 25 22 23 23 23 24 23 23 23 23 24 17 19 12 14 19 16 16 18 15 14 13 16 15 13 14 13 16 13 7 2 9 3 7 8 15 21 15 17 22 28 44 47 51 51 51 51 51 54 54 55 56 57 58 57
47 47 46 45 47 47 48 48 45 46 39 29 18 12 -1 2 15 11 17 19 17 17 14 16 11 7 6 12 10 15 29 29 32 26 26 22 22 25 25 22 23 25 23 18 23 16 14 16 19 18 15 14 13 15 14 14 14 15 14 12 13 13 18 9 15 14 14 12 11 21 15 23 29 38 43 48 50 50 51 52 53 54 55 56 56 57 57 57
45 42 45 44 45 46 47 47 45 44 30 23 17 4 -4 10 5 16 19 20 18 15 15 13 9 5 12 13 12 7 18 23 32 28 29 24 25 24 26 25 23 21 21 21 21 17 17 15 18 20 18 15 14 18 16 13 14 21 10 12 13 17 15 15 16 20 13 14 7 15 31 32 34 37 41 49 49 49 51 51 51 52 52 53 53 53 54 54
43 45 42 44 48 48 47 47 46 38 25 16 12 -0 16 23 10 20 29 17 18 16 11 13 16 6 11 10 11 7 15 25 29 27 25 29 26 31 34 31 24 22 20 22 19 17 16 16 20 19 18 16 15 15 14 15 16 12 12 12 19 21 21 15 10 12 7 6 10 25 27 28 26 26 37 47 47 47 49 50 51 52 52 52 53 54 55 55
43 43 47 48 48 47 47 46 44 35 28 21 15 31 27 15 23 19 22 20 24 20 17 12 15 8 10 9 11 10 17 13 20 29 26 31 26 34 36 32 33 29 24 24 20 27 20 20 22 20 15 15 20 15 15 16 19 14 19 17 13 11 10 17 16 7 6 4 6 21 25 27 27 29 35 44 46 46 48 49 49 51 51 52 53 54 55 56
44 43 37 42 47 47 46 46 40 35 24 18 18 18 20 24 27 27 23 24 22 20 17 15 14 16 10 11 12 16 20 14 21 28 21 27 24 32 32 34 31 38 30 22 22 25 26 19 21 23 21 23 18 19 16 22 18 18 16 15 24 19 21 13 13 15 16 4 10 16 23 19 29 29 37 41 46 46 47 47 48 49 51 51 52 53 54 54
42 37 37 44 47 46 47 45 39 32 26 21 23 21 18 25 25 26 26 26 26 18 18 17 13 13 17 13 15 17 19 26 28 28 24 31 30 36 34 39 36 39 34 29 26 29 23 21 16 22 25 20 16 24 21 20 15 13 13 17 17 22 24 20 21 15 11 10 11 13 13 22 29 36 42 43 46 46 47 47 49 50 51 52 53 53 54 54
40 37 36 44 46 46 45 39 33 30 27 28 29 28 32 30 31 31 32 30 28 22 20 20 19 16 17 17 18 18 20 18 28 26 31 33 31 25 34 39 39 36 35 32 30 31 24 23 19 24 24 23 21 24 26 22 20 19 18 22 19 20 17 12 16 22 23 17 12 14 12 23 31 42 46 46 47 47 47 48 48 50 51 52 52 53 53 54
36 32 35 45 46 46 39 32 31 33 29 30 29 33 31 37 32 30 27 26 26 22 24 22 22 19 19 19 18 17 21 18 21 28 29 28 32 30 36 38 37 38 34 30 31 33 29 26 25 22 24 24 24 25 26 26 33 30 33 31 30 25 20 16 8 14 24 26 24 22 18 20 37 45 48 48 47 48 48 48 47 46 46 47 50 51 52 53
35 33 39 46 47 40 32 25 30 29 30 32 35 30 32 30 30 27 26 26 25 25 25 25 25 22 22 20 20 22 24 18 22 28 29 31 32 32 34 37 38 33 32 32 31 34 50 26 26 25 25 24 25 26 27 28 29 32 34 35 33 28 23 20 18 22 21 23 21 19 16 22 39 48 48 48 48 46 45 44 43 43 43 43 44 44 45 46
35 36 41 44 43 38 33 25 25 23 27 33 31 31 32 31 28 27 26 27 25 26 25 25 27 23 25 24 23 26 26 15 21 27 26 28 28 31 33 38 39 35 31 32 31 39 27 28 28 24 19 21 22 23 24 25 31 29 30 33 35 33 32 28 26 25 22 25 23 20 13 23 42 47 48 47 44 43 42 41 42 42 41 41 41 41 41 42
35 37 40 41 41 40 33 29 27 23 26 29 30 27 29 28 29 30 28 26 27 26 28 27 27 28 28 29 27 28 29 22 22 26 27 28 27 29 29 35 41 41 45 43 44 34 30 28 27 22 20 15 12 13 16 18 25 28 33 33 34 32 29 23 16 19 15 20 23 17 14 28 44 46 47 44 41 40 40 40 40 40 40 40 40 41 41 40
33 28 32 32 31 35 35 35 32 29 26 27 22 26 30 25 27 28 27 27 27 28 27 28 26 28 26 28 26 27 26 30 26 26 26 25 26 29 28 36 39 42 45 47 44 38 30 31 30 27 26 23 21 18 23 28 28 27 29 31 32 33 29 26 23 18 18 19 19 23 30 36 41 43 43 42 42 41 40 40 40 39 39 40 41 41 41 41
33 28 23 27 29 31 31 31 31 29 25 28 21 26 24 27 28 28 28 26 29 27 29 25 25 24 24 24 24 26 26 27 26 26 26 25 24 29 30 34 35 42 44 43 44 34 32 29 30 30 32 31 29 26 32 32 30 31 30 30 32 33 32 24 16 17 24 24 18 27 35 38 40 42 41 40 39 39 39 39 39 39 39 40 40 41 41 41
26 25 29 29 29 26 25 23 30 29 30 27 23 27 25 25 25 22 26 28 30 29 24 23 23 24 25 24 24 18 21 23 23 20 27 22 27 28 31 33 34 40 41 38 41 37 33 30 31 32 33 35 35 33 33 32 32 31 30 29 30 32 33 30 29 29 26 20 22 29 38 38 40 41 40 39 38 37 36 37 38 40 40 39 39 39 39 40
30 29 31 33 23 25 28 28 33 29 28 29 27 26 23 24 23 26 26 27 28 28 25 18 23 23 24 26 23 20 21 18 16 22 23 19 22 27 27 32 32 35 35 39 39 37 34 30 27 34 33 33 34 33 32 30 30 29 29 30 30 31 34 35 35 33 30 26 30 38 39 38 40 40 37 36 35 34 34 34 35 36 38 39 38 38 38 39
29 27 28 32 31 30 31 29 29 26 22 29 19 22 25 24 24 26 27 26 20 24 28 25 24 26 27 26 25 19 19 21 18 14 22 20 21 26 24 28 30 32 32 37 39 36 32 29 36 34 31 32 34 34 32 31 29 27 29 30 30 30 32 35 35 37 39 39 40 39 36 34 37 36 34 34 33 33 33 33 34 36 38 38 37 38 38 39
33 34 33 27 22 25 30 26 23 23 19 21 21 23 26 26 24 26 26 28 24 23 27 25 26 27 27 24 25 23 24 24 23 21 23 19 17 26 21 28 29 24 27 36 36 33 34 29 35 31 29 29 34 34 33 32 30 27 28 29 29 30 32 34 32 33 36 36 38 37 34 33 36 35 34 33 32 32 32 33 34 35 36 37 37 38 38 39
35 36 33 28 22 27 20 24 23 21 17 21 24 24 24 24 24 27 18 21 27 26 28 27 27 23 23 21 21 22 23 24 24 22 22 21 19 23 25 22 25 23 25 36 36 33 32 31 30 30 28 26 32 34 33 32 28 25 22 30 31 31 32 34 35 37 37 40 36 35 35 36 34 34 32 32 32 32 32 33 34 35 37 38 37 38 38 39